Location: Kawakawa
(35.3830°S, 174.0670°E)
Time: 23:33:42
(UTC+12:00)

Daily predictions for brighter satellites

Satellite Brightness Start Highest point End
(mag) Time Altitude Azimuth Time Altitude Azimuth Time Altitude Azimuth
Nadezhda 4 Rocket 4.1 17:46:00 10° N 17:52:09 89° W 17:58:24 10° S
Cosmos 1092 Rocket 4.2 17:47:03 10° NNE 17:53:02 53° E 17:59:08 10° SSE
Cosmos 2058 3.1 17:54:22 10° N 17:58:22 52° E 18:02:27 10° SSE
Atlas Centaur 2 2.8 17:57:30 10° WNW 18:02:38 53° N 18:09:10 10° ENE
Cosmos 2026 Rocket 4.3 17:56:45 10° NNE 18:02:52 51° E 18:09:04 10° SSE
COSMO-SKYMED 1 3.4 17:58:49 10° N 18:03:06 57° W 18:07:27 10° SSW
SMAP 3.9 17:59:28 10° SE 18:03:39 30° E 18:07:46 10° NNE
CZ-2C R/B 3.0 17:59:39 10° NNE 18:05:05 50° ESE 18:10:32 10° S
H-2A R/B 3.4 18:01:09 10° N 18:05:08 43° W 18:09:07 10° SSW
Cosmos 1486 Rocket 4.1 17:59:53 10° SSW 18:05:14 85° WNW 18:10:32 10° NNE
Cosmos 1825 2.1 18:04:37 10° N 18:08:24 87° E 18:12:15 10° S
IRIDIUM 103 4.4 18:04:08 10° S 18:09:22 59° E 18:14:32 10° NNE
USA 234 3.7 18:04:37 10° SE 18:11:06 61° SW 18:17:33 10° WNW
Cosmos 1408 4.0 18:08:24 10° NNW 18:11:56 41° W 18:15:31 10° S
Cosmos 1980 3.8 18:08:24 10° N 18:13:59 62° ENE 18:19:37 10° SSE
Cosmos 405 Rocket 2.6 18:10:27 10° N 18:14:07 62° E 18:17:54 10° SSE
Cosmos 1842 Rocket 3.8 18:11:47 10° S 18:16:08 48° E 18:20:28 10° NNE
NOAA 6 4.1 18:15:39 10° SSE 18:20:48 62° ENE 18:25:52 10° N
Envisat 3.8 18:15:51 10° S 18:20:52 53° WSW 18:25:49 10° NNW
Radarsat Rocket 4.3 18:17:42 10° SSE 18:23:26 43° E 18:28:56 10° N
Cosmos 1356 3.5 18:20:23 10° N 18:23:47 80° W 18:27:16 10° S
SL-16 R/B 3.3 18:21:43 10° NNE 18:25:59 22° E 18:28:38 16° ESE
IRIDIUM 106 4.4 18:22:24 10° S 18:27:43 90° ENE 18:32:57 10° N
CZ-4B R/B 2.5 18:26:02 10° N 18:28:57 44° W 18:31:56 10° SSW
Cosmos 1437 Rocket 3.3 18:25:45 10° SSE 18:29:12 32° ESE 18:32:37 10° NE
MOS 1-B 4.5 18:25:11 10° SSE 18:30:55 54° E 18:36:36 10° N
Cosmos 2221 2.4 18:27:21 10° S 18:31:42 76° E 18:35:59 10° N
CZ-4B DEB 4.2 18:26:25 10° SSE 18:31:57 70° ENE 18:37:23 10° N
Cosmos 1689 Rocket 2.4 18:31:31 10° NE 18:34:12 38° ESE 18:36:56 10° S
Cosmos 1606 3.1 18:32:40 10° S 18:36:17 38° E 18:39:50 10° NNE
ATLAS 3B R/B 3.3 18:29:05 10° NW 18:36:35 67° WSW 18:43:59 10° SSE
PSLV R/B 4.1 18:38:08 10° N 18:42:18 76° WNW 18:46:30 10° SSW
Meteor 2-15 Rocket 4.4 18:37:38 10° S 18:43:49 77° E 18:49:54 10° N
Cosmos 1076 Rocket 3.6 18:44:04 10° N 18:48:20 80° W 18:52:42 10° S
SEDSat Delta rocket 4.2 18:42:25 10° W 18:48:22 61° N 18:52:48 21° ENE
Cosmos 1461 4.5 18:47:51 10° S 18:50:14 20° SSE 18:50:14 20° SSE
Cosmos 1553 Rocket 3.9 18:47:59 10° S 18:54:02 58° E 19:00:01 10° NNE
Cosmos 1777 Rocket 4.0 18:49:47 10° S 18:55:02 58° ESE 19:00:11 10° NNE
Cosmos 2237 Rocket 2.7 18:50:44 10° NNW 18:56:18 61° WSW 19:02:00 10° SSE
H-2A R/B 3.5 19:00:07 19° NE 19:00:07 19° NE 19:02:01 10° NNE
Cosmos 1809 Rocket 4.4 18:54:26 10° N 19:00:37 75° E 19:06:52 10° S
Cosmos 2151 2.8 18:58:00 10° N 19:02:13 77° E 19:05:43 15° S
CZ-2C R/B 2.7 18:59:23 10° SSE 19:04:12 71° ENE 19:08:57 10° N
ERS-2 1.9 19:01:02 10° NNE 19:04:41 78° ESE 19:08:24 10° S
CORIOLIS 4.3 18:59:53 10° S 19:05:24 78° WSW 19:10:52 10° NNW
CZ-2D R/B 3.2 19:08:10 58° E 19:08:10 58° E 19:12:00 10° N
Hubble Space Telescope 3.2 19:07:01 10° N 19:08:12 11° NNE 19:08:12 11° NNE
Cosmos 1417 Rocket 4.5 19:02:23 10° S 19:08:48 65° E 19:15:03 10° NNE
SJ 16-02 3.2 19:05:17 10° S 19:06:30 17° SSE 19:06:30 17° SSE
Okean O Rocket 1.5 19:06:03 18° SSE 19:09:27 80° ENE 19:13:56 10° N
Cosmos 1633 3.1 19:08:05 10° NNW 19:11:35 55° W 19:14:15 17° S
OAO 3 Copernicus 4.3 19:09:58 10° W 19:15:04 75° NNW 19:16:25 49° ENE
Cosmos 1655 Rocket 3.9 19:12:38 10° N 19:18:55 74° E 19:25:19 10° S
Cosmos 1943 Rocket 4.2 19:15:02 10° S 19:15:55 13° SSE 19:15:55 13° SSE
Cosmos 2278 Rocket 2.7 19:19:01 10° SSW 19:24:40 61° WNW 19:30:14 10° N
Meteor 2-3 Rocket 3.6 19:19:07 10° N 19:24:43 85° E 19:29:41 14° S
Cosmos 2292 Rocket 4.5 19:21:00 10° NNW 19:24:44 49° WSW 19:29:43 10° S
Cosmos 1939 Rocket 4.1 19:23:27 10° S 19:27:25 42° WSW 19:31:21 10° NW
USA 276 4.0 19:27:44 10° WSW 19:30:09 30° WNW 19:30:09 30° WNW
Meteor 2-16 Rocket 4.3 19:25:01 10° N 19:31:04 69° E 19:33:55 33° SSE
CZ-4B R/B 3.6 19:26:02 10° S 19:31:18 61° WSW 19:36:31 10° NNW
H-2A R/B 3.1 19:33:35 45° SW 19:34:09 50° WSW 19:37:53 10° NNW
Lacrosse 5 3.3 19:32:01 10° SSW 19:34:45 26° S 19:34:45 26° S
Meteor 2-21 Rocket 4.4 19:31:19 10° N 19:37:32 86° W 19:43:51 10° S
Atlas Centaur 2 3.2 19:45:48 10° W 19:51:38 46° N 19:52:48 42° NNE
SL-16 R/B 3.2 20:04:21 10° NW 20:09:43 43° WSW 20:10:35 40° SW
